• In Uzbekistan
  • List of Countries
  • For 7 days
  • Water Temperature
  • Satellite Maps
  • Weather Map
  • Weather Widgets
  • user-avatar
    Login

    Hourly Weather Innsbruck

    Today, 27 July, Thursday

    Time Temperature Precipitation Wind Pressure Humidity
    00:00 +2°C° 0.1 mm 2 mps 593 mmHg 95%
    01:00 +1°C° 0 mm 2 mps 593 mmHg 94%
    02:00 +1°C° 0 mm 2 mps 592 mmHg 94%
    03:00 +1°C° 0 mm 2 mps 592 mmHg 93%
    04:00 -1°C° 0 mm 2 mps 592 mmHg 92%
    05:00 +2°C° 0 mm 2 mps 593 mmHg 86%
    06:00 +4°C° 0 mm 2 mps 594 mmHg 79%
    07:00 +6°C° 0 mm 2 mps 595 mmHg 72%
    08:00 +7°C° 0.1 mm 2 mps 595 mmHg 68%
    09:00 +9°C° 0.1 mm 1 mps 596 mmHg 64%
    10:00 +11°C° 0.1 mm 1 mps 596 mmHg 60%
    11:00 +11°C° 0.6 mm 1 mps 596 mmHg 64%
    12:00 +10°C° 0.6 mm 1 mps 596 mmHg 68%
    13:00 +10°C° 0.6 mm 1 mps 596 mmHg 72%
    14:00 +11°C° 0.6 mm 1 mps 596 mmHg 72%
    15:00 +12°C° 0.6 mm 1 mps 596 mmHg 73%
    16:00 +12°C° 0.6 mm 1 mps 596 mmHg 73%
    17:00 +12°C° 0.3 mm 1 mps 596 mmHg 78%
    18:00 +11°C° 0.3 mm 1 mps 596 mmHg 82%
    19:00 +10°C° 0.3 mm 1 mps 596 mmHg 86%
    20:00 +10°C° 0.7 mm 1 mps 596 mmHg 89%
    21:00 +9°C° 0.7 mm 1 mps 596 mmHg 91%
    22:00 +8°C° 0.7 mm 1 mps 596 mmHg 93%
    23:00 +8°C° 0.3 mm 1 mps 596 mmHg 93%

    Tomorrow, 28 July, Friday

    Time Temperature Precipitation Wind Pressure Humidity
    00:00 +8°C° 0.3 mm 1 mps 596 mmHg 94%
    01:00 +7°C° 0.3 mm 1 mps 596 mmHg 94%
    02:00 +7°C° 0.1 mm 1 mps 595 mmHg 94%
    03:00 +6°C° 0.1 mm 1 mps 595 mmHg 94%
    04:00 +6°C° 0.1 mm 1 mps 595 mmHg 94%
    05:00 +7°C° 0 mm 1 mps 596 mmHg 92%
    06:00 +9°C° 0 mm 1 mps 596 mmHg 89%
    07:00 +10°C° 0 mm 1 mps 597 mmHg 87%
    08:00 +11°C° 0.2 mm 1 mps 598 mmHg 81%
    09:00 +13°C° 0.2 mm 1 mps 599 mmHg 75%
    10:00 +14°C° 0.2 mm 1 mps 600 mmHg 69%
    11:00 +15°C° 0.3 mm 1 mps 600 mmHg 67%
    12:00 +16°C° 0.3 mm 1 mps 600 mmHg 65%
    13:00 +16°C° 0.3 mm 2 mps 600 mmHg 63%
    14:00 +16°C° 0.4 mm 2 mps 600 mmHg 64%
    15:00 +16°C° 0.4 mm 2 mps 600 mmHg 65%
    16:00 +16°C° 0.4 mm 2 mps 600 mmHg 65%
    17:00 +15°C° 0.3 mm 2 mps 600 mmHg 72%
    18:00 +14°C° 0.3 mm 2 mps 600 mmHg 79%
    19:00 +13°C° 0.3 mm 2 mps 600 mmHg 86%
    20:00 +12°C° 0.1 mm 1 mps 599 mmHg 89%
    21:00 +10°C° 0.1 mm 1 mps 599 mmHg 93%
    22:00 +9°C° 0.1 mm 1 mps 599 mmHg 96%
    23:00 +9°C° 0 mm 1 mps 599 mmHg 96%

    Day after tomorrow, 29 July, Saturday

    Time Temperature Precipitation Wind Pressure Humidity
    00:00 +8°C° 0 mm 1 mps 599 mmHg 96%
    01:00 +8°C° 0 mm 1 mps 599 mmHg 96%
    02:00 +8°C° 0 mm 1 mps 599 mmHg 95%
    03:00 +8°C° 0 mm 1 mps 599 mmHg 95%
    04:00 +8°C° 0 mm 1 mps 598 mmHg 94%
    05:00 +9°C° 0 mm 1 mps 599 mmHg 91%
    06:00 +11°C° 0 mm 1 mps 600 mmHg 88%
    07:00 +12°C° 0 mm 1 mps 601 mmHg 85%
    08:00 +14°C° 0 mm 1 mps 602 mmHg 77%
    09:00 +16°C° 0 mm 1 mps 602 mmHg 69%
    10:00 +19°C° 0 mm 1 mps 603 mmHg 61%
    11:00 +18°C° 0.5 mm 2 mps 603 mmHg 60%
    12:00 +18°C° 0.5 mm 2 mps 603 mmHg 59%
    13:00 +19°C° 0.5 mm 2 mps 603 mmHg 58%
    14:00 +18°C° 1.1 mm 2 mps 603 mmHg 62%
    15:00 +19°C° 1.1 mm 1 mps 603 mmHg 65%
    16:00 +18°C° 1.1 mm 1 mps 602 mmHg 69%
    17:00 +16°C° 1.6 mm 1 mps 602 mmHg 76%
    18:00 +15°C° 1.6 mm 1 mps 601 mmHg 82%
    19:00 +14°C° 1.6 mm 1 mps 601 mmHg 89%
    20:00 +13°C° 0.9 mm 1 mps 601 mmHg 91%
    21:00 +12°C° 0.9 mm 1 mps 601 mmHg 92%
    22:00 +11°C° 0.9 mm 1 mps 601 mmHg 93%
    23:00 +10°C° 0.7 mm 2 mps 600 mmHg 94%

    30 July, Sunday

    Time Temperature Precipitation Wind Pressure Humidity
    00:00 +10°C° 0.7 mm 2 mps 600 mmHg 94%
    01:00 +10°C° 0.7 mm 2 mps 600 mmHg 94%
    02:00 +10°C° 0.4 mm 2 mps 600 mmHg 93%
    03:00 +10°C° 0.4 mm 2 mps 600 mmHg 93%
    04:00 +10°C° 0.4 mm 2 mps 599 mmHg 93%
    05:00 +12°C° 0.1 mm 2 mps 600 mmHg 91%
    06:00 +12°C° 0.1 mm 2 mps 600 mmHg 88%
    07:00 +13°C° 0.1 mm 1 mps 600 mmHg 86%
    08:00 +15°C° 0.3 mm 1 mps 601 mmHg 75%
    09:00 +18°C° 0.3 mm 1 mps 602 mmHg 65%
    10:00 +20°C° 0.3 mm 1 mps 603 mmHg 54%
    11:00 +20°C° 0.7 mm 1 mps 602 mmHg 56%
    12:00 +20°C° 0.7 mm 1 mps 602 mmHg 59%
    13:00 +19°C° 0.7 mm 1 mps 602 mmHg 62%
    14:00 +19°C° 1.7 mm 1 mps 601 mmHg 67%
    15:00 +18°C° 1.7 mm 1 mps 601 mmHg 73%
    16:00 +16°C° 1.7 mm 1 mps 601 mmHg 78%
    17:00 +15°C° 1.7 mm 1 mps 600 mmHg 82%
    18:00 +15°C° 1.7 mm 1 mps 600 mmHg 86%
    19:00 +14°C° 1.7 mm 1 mps 600 mmHg 90%
    20:00 +13°C° 0.7 mm 1 mps 600 mmHg 90%
    21:00 +12°C° 0.7 mm 1 mps 600 mmHg 91%
    22:00 +12°C° 0.7 mm 1 mps 600 mmHg 91%
    23:00 +11°C° 0.3 mm 1 mps 600 mmHg 91%

    31 July, Monday

    Time Temperature Precipitation Wind Pressure Humidity
    00:00 +11°C° 0.3 mm 1 mps 600 mmHg 91%
    01:00 +11°C° 0.3 mm 1 mps 600 mmHg 90%
    02:00 +10°C° 0 mm 1 mps 599 mmHg 90%
    03:00 +10°C° 0 mm 1 mps 599 mmHg 90%
    04:00 +9°C° 0 mm 1 mps 598 mmHg 90%
    05:00 +10°C° 0 mm 1 mps 599 mmHg 86%
    06:00 +12°C° 0 mm 1 mps 600 mmHg 83%
    07:00 +13°C° 0 mm 1 mps 601 mmHg 79%
    08:00 +15°C° 0 mm 1 mps 602 mmHg 69%
    09:00 +19°C° 0 mm 1 mps 603 mmHg 59%
    10:00 +21°C° 0 mm 1 mps 603 mmHg 49%
    11:00 +21°C° 0 mm 1 mps 603 mmHg 46%
    12:00 +21°C° 0 mm 2 mps 604 mmHg 44%
    13:00 +23°C° 0 mm 2 mps 604 mmHg 41%
    14:00 +23°C° 0 mm 2 mps 603 mmHg 43%
    15:00 +23°C° 0 mm 2 mps 603 mmHg 45%
    16:00 +23°C° 0 mm 2 mps 603 mmHg 46%
    17:00 +20°C° 0 mm 2 mps 602 mmHg 55%
    18:00 +19°C° 0 mm 2 mps 602 mmHg 64%
    19:00 +17°C° 0 mm 2 mps 601 mmHg 72%
    20:00 +16°C° 0 mm 2 mps 601 mmHg 77%
    21:00 +14°C° 0 mm 2 mps 600 mmHg 81%
    22:00 +12°C° 0 mm 3 mps 600 mmHg 86%
    23:00 +11°C° 0 mm 3 mps 600 mmHg 86%

    1 August, Tuesday

    Time Temperature Precipitation Wind Pressure Humidity
    00:00 +11°C° 0 mm 3 mps 599 mmHg 87%
    01:00 +11°C° 0 mm 3 mps 599 mmHg 87%
    02:00 +11°C° 0 mm 3 mps 599 mmHg 87%
    03:00 +10°C° 0 mm 3 mps 599 mmHg 88%
    04:00 +10°C° 0 mm 2 mps 599 mmHg 88%
    05:00 +12°C° 0 mm 2 mps 599 mmHg 84%
    06:00 +13°C° 0 mm 2 mps 600 mmHg 80%
    07:00 +14°C° 0 mm 2 mps 600 mmHg 76%
    08:00 +16°C° 0 mm 2 mps 601 mmHg 65%
    09:00 +19°C° 0 mm 2 mps 602 mmHg 54%
    10:00 +21°C° 0 mm 2 mps 603 mmHg 42%
    11:00 +22°C° 0 mm 3 mps 603 mmHg 40%
    12:00 +24°C° 0 mm 3 mps 603 mmHg 38%
    13:00 +25°C° 0 mm 3 mps 603 mmHg 36%
    14:00 +24°C° 0.1 mm 3 mps 602 mmHg 39%
    15:00 +24°C° 0.1 mm 3 mps 602 mmHg 41%
    16:00 +22°C° 0.1 mm 4 mps 601 mmHg 43%
    17:00 +20°C° 1.5 mm 3 mps 601 mmHg 55%
    18:00 +18°C° 1.5 mm 3 mps 600 mmHg 66%
    19:00 +14°C° 1.5 mm 3 mps 600 mmHg 78%
    20:00 +14°C° 1.5 mm 2 mps 600 mmHg 83%
    21:00 +13°C° 1.5 mm 2 mps 600 mmHg 88%
    22:00 +11°C° 1.5 mm 1 mps 600 mmHg 93%
    23:00 +11°C° 0.1 mm 1 mps 600 mmHg 94%
    Show more